TimeAKDT,TemperatureF,Dew PointF,Humidity,Sea Level PressureIn,VisibilityMPH,Wind Direction,Wind SpeedMPH,Gust SpeedMPH,PrecipitationIn,Events,Conditions,WindDirDegrees,DateUTC
12:16 AM,53.6,46.4,77,29.91,10.0,SE,21.9,28.8,N/A,,Overcast,140,2012-10-07 08:16:00
12:36 AM,53.6,48.2,82,29.90,10.0,SSE,26.5,31.1,N/A,,Overcast,150,2012-10-07 08:36:00
12:56 AM,55.4,48.2,77,29.89,10.0,SSE,29.9,35.7,N/A,,Overcast,150,2012-10-07 08:56:00
1:16 AM,55.4,48.2,77,29.90,10.0,SSE,29.9,35.7,0.01,,Overcast,150,2012-10-07 09:16:00
1:36 AM,-9999,-9999,N/A,29.91,10.0,SSE,26.5,34.5,0.01,,Overcast,150,2012-10-07 09:36:00
1:56 AM,-9999,-9999,N/A,29.91,10.0,SE,26.5,32.2,0.01,,Overcast,140,2012-10-07 09:56:00
2:16 AM,53.6,48.2,82,29.93,10.0,SSE,25.3,32.2,N/A,,Overcast,150,2012-10-07 10:16:00
2:36 AM,53.6,48.2,82,29.93,10.0,SSE,26.5,32.2,N/A,,Overcast,150,2012-10-07 10:36:00
2:56 AM,53.6,48.2,82,29.93,10.0,SSE,21.9,29.9,N/A,,Overcast,160,2012-10-07 10:56:00
3:16 AM,53.6,48.2,82,29.92,10.0,SSE,25.3,33.4,N/A,,Overcast,150,2012-10-07 11:16:00
3:36 AM,53.6,48.2,82,29.92,10.0,SSE,26.5,32.2,0.01,,Overcast,150,2012-10-07 11:36:00
3:56 AM,53.6,48.2,82,29.91,10.0,SSE,28.8,34.5,0.01,,Overcast,150,2012-10-07 11:56:00
4:16 AM,-9999,-9999,N/A,29.91,10.0,SSE,29.9,38.0,N/A,,Overcast,150,2012-10-07 12:16:00
4:36 AM,53.6,50.0,88,29.92,10.0,SSE,28.8,35.7,N/A,,Mostly Cloudy,150,2012-10-07 12:36:00
4:56 AM,-9999,-9999,N/A,29.91,10.0,SSE,31.1,40.3,N/A,,Mostly Cloudy,150,2012-10-07 12:56:00
5:16 AM,-9999,-9999,N/A,29.91,10.0,SSE,29.9,36.8,N/A,,Mostly Cloudy,150,2012-10-07 13:16:00
5:36 AM,-9999,-9999,N/A,29.91,10.0,SSE,31.1,38.0,N/A,,Partly Cloudy,150,2012-10-07 13:36:00
5:56 AM,53.6,48.2,82,29.92,10.0,SSE,29.9,33.4,N/A,,Scattered Clouds,150,2012-10-07 13:56:00
6:16 AM,-9999,-9999,N/A,29.90,10.0,SE,32.2,36.8,N/A,,Mostly Cloudy,140,2012-10-07 14:16:00
6:36 AM,-9999,-9999,N/A,29.91,10.0,SE,29.9,38.0,N/A,,Mostly Cloudy,140,2012-10-07 14:36:00
6:56 AM,-9999,-9999,N/A,29.90,10.0,SE,33.4,42.6,N/A,,Mostly Cloudy,140,2012-10-07 14:56:00
7:16 AM,-9999,-9999,N/A,29.90,10.0,SSE,31.1,41.4,N/A,,Scattered Clouds,150,2012-10-07 15:16:00
7:36 AM,-9999,-9999,N/A,29.92,10.0,SSE,33.4,39.1,N/A,,Clear,150,2012-10-07 15:36:00
7:56 AM,55.4,48.2,77,29.94,10.0,SE,28.8,34.5,N/A,,Clear,140,2012-10-07 15:56:00
8:16 AM,-9999,-9999,N/A,29.93,10.0,SSE,27.6,34.5,N/A,,Clear,150,2012-10-07 16:16:00
8:36 AM,-9999,-9999,N/A,29.93,10.0,SSE,29.9,40.3,N/A,,Clear,150,2012-10-07 16:36:00
8:56 AM,-9999,-9999,N/A,29.93,10.0,SSE,34.5,43.7,N/A,,Clear,150,2012-10-07 16:56:00
9:36 AM,-9999,-9999,N/A,29.94,10.0,SSE,31.1,40.3,N/A,,Clear,150,2012-10-07 17:36:00
9:56 AM,-9999,-9999,N/A,29.93,10.0,SE,38.0,47.2,N/A,,Clear,140,2012-10-07 17:56:00
10:16 AM,-9999,-9999,N/A,29.95,10.0,SE,38.0,47.2,N/A,,Clear,140,2012-10-07 18:16:00
10:36 AM,-9999,-9999,N/A,29.96,10.0,SE,36.8,48.3,N/A,,Clear,140,2012-10-07 18:36:00
10:56 AM,-9999,-9999,N/A,29.96,10.0,SSE,36.8,44.9,N/A,,Clear,150,2012-10-07 18:56:00
11:16 AM,-9999,-9999,N/A,29.95,10.0,SSE,40.3,49.5,N/A,,Clear,150,2012-10-07 19:16:00
11:36 AM,-9999,-9999,N/A,29.95,10.0,SSE,42.6,51.8,N/A,,Clear,150,2012-10-07 19:36:00
11:56 AM,-9999,-9999,N/A,29.95,10.0,SSE,44.9,54.1,N/A,,Clear,150,2012-10-07 19:56:00
12:16 PM,-9999,-9999,N/A,29.96,10.0,SE,41.4,49.5,N/A,,Clear,140,2012-10-07 20:16:00
12:36 PM,-9999,-9999,N/A,29.96,10.0,SSE,40.3,52.9,N/A,,Clear,150,2012-10-07 20:36:00
12:56 PM,55.4,48.2,77,29.98,10.0,SSE,41.4,52.9,N/A,,Clear,150,2012-10-07 20:56:00
1:16 PM,-9999,-9999,N/A,29.99,10.0,SSE,38.0,46.0,N/A,,Clear,150,2012-10-07 21:16:00
1:36 PM,-9999,-9999,N/A,29.99,10.0,SE,41.4,48.3,N/A,,Clear,140,2012-10-07 21:36:00
1:56 PM,-9999,-9999,N/A,29.99,10.0,SSE,39.1,48.3,N/A,,Clear,150,2012-10-07 21:56:00
2:16 PM,-9999,-9999,N/A,29.99,10.0,SSE,36.8,44.9,N/A,,Clear,150,2012-10-07 22:16:00
2:36 PM,-9999,-9999,N/A,30.00,10.0,SSE,36.8,43.7,N/A,,Clear,150,2012-10-07 22:36:00
2:56 PM,-9999,-9999,N/A,30.02,10.0,SSE,29.9,39.1,N/A,,Clear,150,2012-10-07 22:56:00
3:16 PM,-9999,-9999,N/A,29.99,10.0,SSE,33.4,42.6,N/A,,Clear,150,2012-10-07 23:16:00
3:36 PM,-9999,-9999,N/A,29.99,10.0,SE,34.5,42.6,N/A,,Clear,140,2012-10-07 23:36:00
3:56 PM,-9999,-9999,N/A,29.98,10.0,SE,34.5,44.9,N/A,,Clear,140,2012-10-07 23:56:00
4:16 PM,-9999,-9999,N/A,29.97,10.0,SE,35.7,44.9,N/A,,Clear,140,2012-10-08 00:16:00
4:36 PM,-9999,-9999,N/A,29.97,10.0,SE,35.7,42.6,N/A,,Clear,140,2012-10-08 00:36:00
4:56 PM,-9999,-9999,N/A,29.98,10.0,SSE,34.5,41.4,N/A,,Clear,150,2012-10-08 00:56:00
5:16 PM,-9999,-9999,N/A,30.00,10.0,SSE,31.1,40.3,N/A,,Clear,150,2012-10-08 01:16:00
5:36 PM,53.6,46.4,77,30.02,10.0,SSE,23.0,31.1,N/A,,Clear,150,2012-10-08 01:36:00
5:56 PM,53.6,46.4,77,30.03,10.0,SE,27.6,31.1,N/A,,Clear,140,2012-10-08 01:56:00
6:16 PM,51.8,46.4,82,30.01,10.0,SE,26.5,34.5,N/A,,Clear,140,2012-10-08 02:16:00
6:36 PM,-9999,-9999,N/A,30.00,10.0,SE,33.4,40.3,N/A,,Clear,140,2012-10-08 02:36:00
6:56 PM,-9999,-9999,N/A,29.99,10.0,SE,34.5,46.0,N/A,,Clear,140,2012-10-08 02:56:00
7:16 PM,-9999,-9999,N/A,29.99,10.0,SE,38.0,42.6,N/A,,Clear,140,2012-10-08 03:16:00
7:36 PM,-9999,-9999,N/A,29.98,10.0,SE,38.0,44.9,N/A,,Clear,140,2012-10-08 03:36:00
7:56 PM,53.6,42.8,67,29.98,10.0,SE,38.0,49.5,N/A,,Clear,140,2012-10-08 03:56:00
8:16 PM,-9999,-9999,N/A,29.98,10.0,SE,38.0,47.2,N/A,,Clear,140,2012-10-08 04:16:00
8:36 PM,-9999,-9999,N/A,29.98,10.0,SE,36.8,42.6,N/A,,Clear,140,2012-10-08 04:36:00
8:56 PM,-9999,-9999,N/A,29.99,10.0,SSE,36.8,46.0,N/A,,Clear,150,2012-10-08 04:56:00
9:16 PM,-9999,-9999,N/A,29.99,10.0,SE,39.1,46.0,N/A,,Clear,140,2012-10-08 05:16:00
9:36 PM,-9999,-9999,N/A,29.98,10.0,SE,40.3,47.2,N/A,,Clear,140,2012-10-08 05:36:00
9:56 PM,-9999,-9999,N/A,30.00,10.0,SSE,39.1,49.5,N/A,,Clear,150,2012-10-08 05:56:00
10:16 PM,-9999,-9999,N/A,30.02,10.0,SSE,31.1,42.6,N/A,,Clear,150,2012-10-08 06:16:00
10:36 PM,-9999,-9999,N/A,30.01,10.0,SSE,36.8,44.9,N/A,,Clear,150,2012-10-08 06:36:00
10:56 PM,-9999,-9999,N/A,30.02,10.0,SSE,33.4,47.2,0.01,,Clear,150,2012-10-08 06:56:00
11:16 PM,-9999,-9999,N/A,30.03,10.0,SSE,31.1,40.3,N/A,,Clear,150,2012-10-08 07:16:00
11:36 PM,51.8,44.6,76,30.04,10.0,SSE,27.6,34.5,N/A,,Clear,160,2012-10-08 07:36:00
11:56 PM,51.8,44.6,76,30.05,10.0,South,23.0,33.4,0.02,,Clear,170,2012-10-08 07:56:00